• In Hungary
  • List of Countries
  • For 7 days
  • Water Temperature
  • Satellite Maps
  • Weather Map
  • News
  • Weather Widgets
  • user-avatar
    Login

    Hourly Weather Volyncevskiy

    Today, 22 October, Monday

    Time Temperature Precipitation Wind Pressure Humidity
    00:00 +4°C° 0 mm 1 mps 750 mmHg 81%
    01:00 +4°C° 0 mm 1 mps 749 mmHg 82%
    02:00 +3°C° 0 mm 1 mps 749 mmHg 84%
    03:00 +4°C° 0 mm 1 mps 749 mmHg 80%
    04:00 +4°C° 0 mm 1 mps 749 mmHg 81%
    05:00 +4°C° 0 mm 1 mps 749 mmHg 81%
    06:00 +4°C° 0 mm 1 mps 749 mmHg 82%
    07:00 +4°C° 0 mm 1 mps 749 mmHg 80%
    08:00 +5°C° 0 mm 1 mps 749 mmHg 78%
    09:00 +5°C° 0 mm 1 mps 749 mmHg 77%
    10:00 +6°C° 0 mm 1 mps 748 mmHg 72%
    11:00 +7°C° 0 mm 1 mps 748 mmHg 68%
    12:00 +7°C° 0 mm 2 mps 747 mmHg 64%
    13:00 +7°C° 0 mm 2 mps 747 mmHg 62%
    14:00 +8°C° 0 mm 2 mps 746 mmHg 61%
    15:00 +8°C° 0 mm 3 mps 746 mmHg 60%
    16:00 +7°C° 0 mm 2 mps 745 mmHg 65%
    17:00 +6°C° 0 mm 2 mps 745 mmHg 69%
    18:00 +5°C° 0 mm 2 mps 744 mmHg 74%
    19:00 +5°C° 0 mm 2 mps 744 mmHg 76%
    20:00 +4°C° 0 mm 2 mps 743 mmHg 78%
    21:00 +3°C° 0 mm 3 mps 743 mmHg 80%
    22:00 +2°C° 0 mm 3 mps 742 mmHg 81%
    23:00 +2°C° 0 mm 3 mps 742 mmHg 82%

    Tomorrow, 23 October, Tuesday

    Time Temperature Precipitation Wind Pressure Humidity
    00:00 +2°C° 0 mm 3 mps 741 mmHg 83%
    01:00 +2°C° 0 mm 3 mps 741 mmHg 83%
    02:00 +1°C° 0 mm 3 mps 740 mmHg 83%
    03:00 +1°C° 0 mm 3 mps 739 mmHg 84%
    04:00 +1°C° 0 mm 3 mps 739 mmHg 84%
    05:00 +1°C° 0 mm 3 mps 738 mmHg 85%
    06:00 +1°C° 0 mm 3 mps 737 mmHg 85%
    07:00 0°C° 0 mm 4 mps 737 mmHg 84%
    08:00 +1°C° 0 mm 4 mps 737 mmHg 83%
    09:00 +1°C° 0 mm 4 mps 737 mmHg 82%
    10:00 +3°C° 0 mm 4 mps 736 mmHg 81%
    11:00 +4°C° 0 mm 4 mps 736 mmHg 79%
    12:00 +4°C° 0 mm 4 mps 735 mmHg 78%
    13:00 +4°C° 0.1 mm 3 mps 735 mmHg 79%
    14:00 +5°C° 0.1 mm 3 mps 735 mmHg 80%
    15:00 +5°C° 0.1 mm 3 mps 734 mmHg 81%
    16:00 +4°C° 0.2 mm 3 mps 734 mmHg 83%
    17:00 +5°C° 0.2 mm 2 mps 733 mmHg 85%
    18:00 +5°C° 0.2 mm 2 mps 733 mmHg 87%
    19:00 +5°C° 0.1 mm 2 mps 732 mmHg 88%
    20:00 +5°C° 0.1 mm 2 mps 732 mmHg 88%
    21:00 +4°C° 0.1 mm 2 mps 731 mmHg 89%
    22:00 +4°C° 0.1 mm 2 mps 731 mmHg 89%
    23:00 +4°C° 0.1 mm 2 mps 730 mmHg 89%

    Day after tomorrow, 24 October, Wednesday

    Time Temperature Precipitation Wind Pressure Humidity
    00:00 +4°C° 0.1 mm 2 mps 729 mmHg 89%
    01:00 +4°C° 0.1 mm 2 mps 729 mmHg 89%
    02:00 +4°C° 0.1 mm 2 mps 728 mmHg 89%
    03:00 +3°C° 0.1 mm 3 mps 727 mmHg 89%
    04:00 +3°C° 0.1 mm 3 mps 727 mmHg 89%
    05:00 +3°C° 0.1 mm 3 mps 726 mmHg 89%
    06:00 +2°C° 0.1 mm 3 mps 725 mmHg 89%
    07:00 +3°C° 0 mm 3 mps 725 mmHg 86%
    08:00 +3°C° 0 mm 3 mps 725 mmHg 83%
    09:00 +3°C° 0 mm 4 mps 725 mmHg 80%
    10:00 +4°C° 0.1 mm 4 mps 724 mmHg 76%
    11:00 +5°C° 0.1 mm 4 mps 724 mmHg 73%
    12:00 +6°C° 0.1 mm 5 mps 723 mmHg 69%
    13:00 +6°C° 0.4 mm 5 mps 723 mmHg 72%
    14:00 +5°C° 0.4 mm 5 mps 723 mmHg 75%
    15:00 +5°C° 0.4 mm 5 mps 722 mmHg 78%
    16:00 +6°C° 0.4 mm 5 mps 722 mmHg 81%
    17:00 +6°C° 0.4 mm 5 mps 722 mmHg 83%
    18:00 +6°C° 0.4 mm 5 mps 722 mmHg 86%
    19:00 +5°C° 0.1 mm 4 mps 722 mmHg 88%
    20:00 +5°C° 0.1 mm 3 mps 722 mmHg 90%
    21:00 +5°C° 0.1 mm 3 mps 722 mmHg 93%
    22:00 +5°C° 0.2 mm 3 mps 722 mmHg 94%
    23:00 +5°C° 0.2 mm 3 mps 722 mmHg 94%

    25 October, Thursday

    Time Temperature Precipitation Wind Pressure Humidity
    00:00 +5°C° 0.2 mm 3 mps 722 mmHg 95%
    01:00 +5°C° 1 mm 3 mps 721 mmHg 95%
    02:00 +5°C° 1 mm 3 mps 721 mmHg 96%
    03:00 +5°C° 1 mm 3 mps 721 mmHg 96%
    04:00 +5°C° 0.5 mm 3 mps 720 mmHg 96%
    05:00 +7°C° 0.5 mm 3 mps 720 mmHg 95%
    06:00 +6°C° 0.5 mm 4 mps 719 mmHg 95%
    07:00 +6°C° 0.6 mm 4 mps 718 mmHg 95%
    08:00 +6°C° 0.6 mm 5 mps 717 mmHg 94%
    09:00 +5°C° 0.6 mm 6 mps 716 mmHg 93%
    10:00 +5°C° 2.8 mm 6 mps 716 mmHg 92%
    11:00 +5°C° 2.8 mm 6 mps 715 mmHg 90%
    12:00 +5°C° 2.8 mm 7 mps 714 mmHg 89%
    13:00 +5°C° 0.6 mm 6 mps 714 mmHg 84%
    14:00 +5°C° 0.6 mm 6 mps 713 mmHg 79%
    15:00 +5°C° 0.6 mm 6 mps 713 mmHg 74%
    16:00 +5°C° 0.3 mm 4 mps 713 mmHg 77%
    17:00 +5°C° 0.3 mm 3 mps 713 mmHg 81%
    18:00 +5°C° 0.3 mm 2 mps 713 mmHg 85%
    19:00 +4°C° 0.3 mm 3 mps 713 mmHg 85%
    20:00 +3°C° 0.3 mm 4 mps 714 mmHg 86%
    21:00 +2°C° 0.3 mm 5 mps 714 mmHg 86%
    22:00 +2°C° 0.1 mm 6 mps 715 mmHg 85%
    23:00 +2°C° 0.1 mm 7 mps 716 mmHg 83%

    26 October, Friday

    Time Temperature Precipitation Wind Pressure Humidity
    00:00 +1°C° 0.1 mm 8 mps 717 mmHg 82%
    01:00 0°C° 0.1 mm 8 mps 718 mmHg 81%
    02:00 0°C° 0.1 mm 8 mps 719 mmHg 81%
    03:00 0°C° 0.1 mm 8 mps 720 mmHg 80%
    04:00 0°C° 0.1 mm 8 mps 721 mmHg 80%
    05:00 0°C° 0.1 mm 7 mps 721 mmHg 80%
    06:00 -1°C° 0.1 mm 7 mps 722 mmHg 80%
    07:00 -1°C° 0 mm 7 mps 723 mmHg 79%
    08:00 -1°C° 0 mm 7 mps 724 mmHg 77%
    09:00 -1°C° 0 mm 7 mps 725 mmHg 76%
    10:00 -1°C° 0 mm 7 mps 725 mmHg 73%
    11:00 0°C° 0 mm 7 mps 726 mmHg 70%
    12:00 0°C° 0 mm 7 mps 727 mmHg 67%
    13:00 0°C° 0 mm 7 mps 728 mmHg 67%
    14:00 +2°C° 0 mm 7 mps 728 mmHg 67%
    15:00 +2°C° 0 mm 7 mps 729 mmHg 67%
    16:00 +2°C° 0 mm 7 mps 730 mmHg 70%
    17:00 +1°C° 0 mm 6 mps 731 mmHg 73%
    18:00 +1°C° 0 mm 6 mps 731 mmHg 76%
    19:00 +1°C° 0 mm 6 mps 732 mmHg 77%
    20:00 +1°C° 0 mm 6 mps 732 mmHg 77%
    21:00 +1°C° 0 mm 5 mps 733 mmHg 77%
    22:00 0°C° 0 mm 5 mps 734 mmHg 78%
    23:00 0°C° 0 mm 5 mps 734 mmHg 79%

    27 October, Saturday

    Time Temperature Precipitation Wind Pressure Humidity
    00:00 0°C° 0 mm 5 mps 735 mmHg 80%
    01:00 -1°C° 0 mm 5 mps 735 mmHg 81%
    02:00 -1°C° 0 mm 4 mps 736 mmHg 83%
    03:00 -2°C° 0 mm 4 mps 737 mmHg 84%
    04:00 -2°C° 0 mm 4 mps 737 mmHg 85%
    05:00 -2°C° 0 mm 4 mps 738 mmHg 86%
    06:00 -2°C° 0 mm 4 mps 738 mmHg 88%
    07:00 -2°C° 0 mm 4 mps 739 mmHg 86%
    08:00 -1°C° 0 mm 4 mps 739 mmHg 84%
    09:00 -1°C° 0 mm 4 mps 740 mmHg 83%
    10:00 0°C° 0 mm 5 mps 740 mmHg 78%
    11:00 +1°C° 0 mm 5 mps 740 mmHg 73%
    12:00 +3°C° 0 mm 5 mps 740 mmHg 69%
    13:00 +3°C° 0 mm 5 mps 739 mmHg 68%
    14:00 +3°C° 0 mm 6 mps 739 mmHg 68%
    15:00 +4°C° 0 mm 6 mps 739 mmHg 68%
    16:00 +3°C° 0 mm 6 mps 739 mmHg 72%
    17:00 +3°C° 0 mm 6 mps 739 mmHg 76%
    18:00 +3°C° 0 mm 6 mps 739 mmHg 80%
    19:00 +3°C° 0 mm 6 mps 739 mmHg 80%
    20:00 +3°C° 0 mm 6 mps 739 mmHg 79%
    21:00 +4°C° 0 mm 6 mps 739 mmHg 79%
    22:00 +3°C° 0 mm 6 mps 739 mmHg 81%
    23:00 +3°C° 0 mm 5 mps 739 mmHg 84%

    28 October, Sunday

    Time Temperature Precipitation Wind Pressure Humidity
    00:00 +3°C° 0 mm 5 mps 739 mmHg 86%
    01:00 +3°C° 0 mm 4 mps 739 mmHg 88%
    02:00 +3°C° 0 mm 4 mps 739 mmHg 91%
    03:00 +3°C° 0 mm 4 mps 739 mmHg 94%
    04:00 +3°C° 0 mm 3 mps 739 mmHg 94%
    05:00 +4°C° 0 mm 3 mps 739 mmHg 95%
    06:00 +4°C° 0 mm 3 mps 739 mmHg 96%
    07:00 +5°C° 0.1 mm 4 mps 739 mmHg 96%
    08:00 +6°C° 0.1 mm 4 mps 739 mmHg 95%
    09:00 +7°C° 0.1 mm 4 mps 739 mmHg 95%
    10:00 +7°C° 0.1 mm 5 mps 739 mmHg 93%
    11:00 +8°C° 0.1 mm 5 mps 739 mmHg 91%
    12:00 +9°C° 0.1 mm 6 mps 739 mmHg 89%
    13:00 +9°C° 0.1 mm 6 mps 738 mmHg 88%
    14:00 +10°C° 0.1 mm 6 mps 738 mmHg 87%
    15:00 +10°C° 0.1 mm 7 mps 737 mmHg 86%
    16:00 +10°C° 0 mm 7 mps 737 mmHg 86%
    17:00 +10°C° 0 mm 7 mps 737 mmHg 87%
    18:00 +10°C° 0 mm 7 mps 737 mmHg 87%
    19:00 +10°C° 0 mm 7 mps 737 mmHg 87%
    20:00 +10°C° 0 mm 7 mps 737 mmHg 86%
    21:00 +10°C° 0 mm 7 mps 737 mmHg 86%
    22:00 +10°C° 0 mm 6 mps 737 mmHg 87%
    23:00 +10°C° 0 mm 6 mps 737 mmHg 88%
    Show more